Regional Weather Roundup
Issued by NWS

Home | Current Version | Previous Version | Text Only | Print | Product List | Glossary On
Versions: 1 2 3 4 5 6 7 8 9 10 11 12 13 14 15 16 17 18 19 20 21 22 23 24 25 26 27 28 29 30 31 32 33 34 35 36 37 38 39 40 41 42 43 44 45 46 47 48 49 50
000
ASUS43 KMKX 211711
RWRWI

WISCONSIN REGIONAL WEATHER ROUNDUP
NATIONAL WEATHER SERVICE MILWAUKEE/SULLIVAN WI
1200 PM CDT SUN SEP 21 2014

NOTE: "FAIR" INDICATES FEW OR NO CLOUDS BELOW 12,000 FEET WITH NO
SIGNIFICANT WEATHER AND/OR OBSTRUCTIONS TO VISIBILITY.

WIZ001-002-006>008-014>016-023>028-211800-
NORTHWEST WISCONSIN

CITY           SKY/WX    TMP DP  RH WIND       PRES   REMARKS
SUPERIOR ARPT  PTSUNNY   59  46  62 NE5       30.10R
ASHLAND        CLOUDY    54  44  69 NE14      30.11R
HAYWARD        PTSUNNY   54  43  66 NW12G21   30.09R
SIREN          PTSUNNY   59  47  64 N13G20    30.11R
RICE LAKE      MOSUNNY   57  47  70 NW12      30.09R
LADYSMITH      PTSUNNY   56  44  62 N16G23    30.07R
EAU CLAIRE     MOSUNNY   61  45  55 NW10G20   30.06R
MENOMONIE      MOSUNNY   62  43  49 N18       30.08R
NEW RICHMOND   MOSUNNY   60  47  62 N12G18    30.11S
OSCEOLA        PTSUNNY   60  47  62 NW13G21   30.14S
$$

WIZ003>005-009-010-017-018-211800-
NORTH CENTRAL WISCONSIN

CITY           SKY/WX    TMP DP  RH WIND       PRES   REMARKS
WOODRUFF       CLOUDY    52  43  73 N17G26    30.03R
RHINELANDER    CLOUDY    48  39  71 N12G23    30.02R
EAGLE RIVER    CLOUDY    45  38  75 N10G18    30.02R
LAND O LAKES   CLOUDY    45  38  77 N13G22    30.03R
PHILLIPS       CLOUDY    51  44  78 N13       30.04R
TOMAHAWK       CLOUDY    50  41  72 N13G21    30.03R
MEDFORD        PTSUNNY   53  43  68 N14G25    30.03R
MERRILL        CLOUDY    52  42  70 N16G25    30.01R
$$

WIZ029-030-035-036-043>047-211800-
CENTRAL WISCONSIN

CITY           SKY/WX    TMP DP  RH WIND       PRES   REMARKS
WAUSAU         CLOUDY    53  40  61 NW18G29   29.99R
MOSINEE        CLOUDY    54  45  71 N22       30.01R
MARSHFIELD     PTSUNNY   58  44  60 N16G24    30.01R
STEVENS POINT  CLOUDY    53  41  64 N22G28    30.00R
WAUPACA        PTSUNNY   58  46  62 NW20G28   29.96R
WAUTOMA        CLOUDY    60  47  62 N20G25    29.97R
WISC RAPIDS    PTSUNNY   59  43  55 N14G30    30.01R
CAMP DOUGLAS   PTSUNNY   59  52  77 N15G25    30.01R
$$

WIZ011>013-019>022-031-037>040-048>050-211800-
NORTHEAST WISCONSIN

CITY           SKY/WX    TMP DP  RH WIND       PRES   REMARKS
ANTIGO         CLOUDY    49  40  70 N28G33    29.99R
STURGEON BAY   CLOUDY    55  45  67 N24G32    29.90R
GREEN BAY      CLOUDY    57  48  72 NW15G24   29.93R
MANITOWOC      CLOUDY    57  49  74 N24G30    29.88R
APPLETON       PTSUNNY   55  48  76 NW20G30   29.93R
CLINTONVILLE   CLOUDY    55  41  58 N18G25    29.96R
OSHKOSH        PTSUNNY   59  52  77 N18G24    29.92R
$$

WIZ032>034-041-042-053>061-211800-
SOUTHWEST WISCONSIN

CITY           SKY/WX    TMP DP  RH WIND       PRES   REMARKS
LA CROSSE      PTSUNNY   63  49  60 NW18      30.04R
SPARTA         CLOUDY    59  47  65 NW12G20   30.04R
VIROQUA        CLOUDY    59  50  71 N16G24    30.03R
BOSCOBEL       CLOUDY    61  52  72 N9        30.03R
PRAIRIE DU CHI CLOUDY    59  50  71 NW9G17    30.04R
PLATTEVILLE    CLOUDY    59  52  77 NW17G23   30.02R
$$

WIZ056-057-062-063-064-067-068-211800-
SOUTH CENTRAL WISCONSIN

CITY           SKY/WX    TMP DP  RH WIND       PRES   REMARKS
BARABOO/DELLS  CLOUDY    58  50  74 NW15G22   29.97R
LONE ROCK      PTSUNNY   65  52  62 NW12G17   30.00R
WATERTOWN      CLOUDY    62  53  73 NW16G22   29.92R
MADISON        PTSUNNY   61  51  70 N15       29.95R
MIDDLETON      CLOUDY    63  50  64 NW13      29.97R
MONROE         CLOUDY    61  50  67 NW17      29.97R
JANESVILLE     PTSUNNY   63  52  67 NW12G17   29.93R
$$

WIZ051-052-058>065-066-070>072-211800-
SOUTHEAST WISCONSIN

CITY           SKY/WX    TMP DP  RH WIND       PRES   REMARKS
MILWAUKEE      PTSUNNY   62  54  74 NW14G22   29.89R
WAUKESHA       CLOUDY    57  52  82 NW16G23   29.91R
MILWAUKEE/TIMM RAIN      57  52  82 NW13G23   29.90R
RACINE         CLOUDY    61  55  81 N16G22    29.91R
BURLINGTON     PTSUNNY   61  51  70 NW15      29.91R
KENOSHA        PTSUNNY   60  54  80 NW14G23   29.90R
FOND DU LAC    CLOUDY    59  51  75 NW20      29.91R
SHEBOYGAN      CLOUDY    61  50  67 N17G24    29.89R
WEST BEND      CLOUDY    59  50  72 N13G22    29.90R
JUNEAU         PTSUNNY   60  52  73 N12G17    29.93R
$$

LSZ147-162-211800-
LAKE SUPERIOR

STATION/POSITION TIME  TEMP    WIND        PRES    WAVE
                       AIR SEA DIR/SP/G            HT/PER
                 (UTC) (F)     (DEG/KT/KT) (MB)    (FT/S)
W MID LAKE BUOY  1650   46 46  330/ 10/ 12 1018.8R   3/ 5
DEVILS ISLAND    1700   47      50/ 11/ 12 1020.0R
PORT WING        1640   53      40/ 13/ 14 1019.6R
SAXON HARBOR     1600   52      40/ 15/ 18 1018.6R
$$

LMZ867-665-643>646-211800-
LAKE MICHIGAN

STATION/POSITION TIME  TEMP    WIND        PRES    WAVE
                       AIR SEA DIR/SP/G            HT/PER
                 (UTC) (F)     (DEG/KT/KT) (MB)    (FT/S)
N MID LAKE BUOY  1650   53 58  350/ 23/ 27 1010.3R   6/ 6
NORTHPORT PIER   1606   53     330/ 26/ 26 1011.2R
SISTER BAY       1512           10/ 27/ 36   N/A
KEWAUNEE LAKESHO 1600   56     340/ 14/ 21 1010.0R
SHEBOYGAN LAKESH 1700   56 51  360/ 19/ 21 1012.3R
PORT WASHINGTON  1640   61     360/ 10/ 18 1012.2R
ATWATER BUOY     1700   57     350/ 12/ 16 1013.1R
MILWAUKEE LAKESH 1600   59     310/ 10/ 14   N/A
S MID LAKE BUOY  1650   59 62  330/ 27/ 33 1010.0R   6/ 6
KENOSHA   LAKESH 1700   59     330/ 15/ 24 1012.2R
$$

TC  - TEMPERATURE IN CELSIUS
VSB - VISIBILITY IN STATUTE MILES
WCI - WIND CHILL INDEX
HX  - HEAT INDEX




USA.gov is the U.S. government's official web portal to all federal, state and local government web resources and services.